カタログに戻る

STARLINK-3734

運用中通信VLEO
NORAD 52112·PAYLOAD·🇺🇸 United States

打ち上げ Mar 19, 2022 から Cape Canaveral Space Force Station

Loading…

次のパス (今後24時間)

TLE

最新Source: CelesTrak SupGP

元期: Sep 15, 2026, 01:17 UTC

1 52112C 22029AA  26258.05395833  .00704310  00000+0  23884-1 0  2583
2 52112  53.1595 274.6902 0001267  94.3248  36.2305 15.29641736    11

AllMySatでSTARLINK-3734をリアルタイム追跡

Download on the App Store